East Taunton, MA

10:41 PM EST on February 24, 2017 (GMT -0500)
Taunton Municipal

Weather History for KTAN - March, 2014

Change the Weather History Date:

Friday, March 21, 2014

  Actual Average Record
Temperature  
Mean Temperature 40 °F -  
Max Temperature 48 °F 47 °F 75 °F (2012)
Min Temperature 32 °F 28 °F 5 °F (1956)
Degree Days  
Heating Degree Days 25    
Moisture  
Dew Point 20 °F    
Average Humidity 46    
Maximum Humidity 67    
Minimum Humidity 33    
Precipitation  
Precipitation 0.00 in - - ()
Sea Level Pressure  
Sea Level Pressure 29.88 in    
Wind  
Wind Speed 8 mph (West)    
Max Wind Speed 18 mph    
Max Gust Speed 30 mph    
Visibility 10 miles    
Events      
Averages and records for this station are not official NWS values.
T = Trace of Precipitation, MM = Missing Value Source: NWS Daily Summary

Daily Weather History Graph

Daily Weather History Graph

Search for Another Location

Airport or City:

Trip Planner

Search our weather history database for the weather conditions in past years. The results will help you decide how hot, cold, wet, or windy it might be!

Date:

Astronomy

Mar. 21, 2014 Rise Set
Actual Time 6:45 AM EDT 6:57 PM EDT
Civil Twilight 6:17 AM EDT 7:25 PM EDT
Nautical Twilight 5:45 AM EDT 7:57 PM EDT
Astronomical Twilight 5:12 AM EDT 8:31 PM EDT
Moon No Moon Rise 9:30 AM EDT (3/21)
Length of Visible Light 13h 07m
Length of Day
12h 11m
Waning Gibbous, 75% of the Moon is Illuminated
Mar 21
Waning Gibbous
Mar 23
Last Quarter
Mar 30
New
Apr 7
First Quarter
Apr 15
Full

Hourly Weather History & Observations

Time (EDT) Temp. Windchill Dew Point Humidity Pressure Visibility Wind Dir Wind Speed Gust Speed Precip Events Conditions
12:52 AM 39.9 °F 36.7 °F 28.0 °F 63% 29.78 in 10.0 mi WSW 4.6 mph - N/A   Partly Cloudy
1:52 AM 37.0 °F 34.5 °F 27.0 °F 67% 29.78 in 10.0 mi West 3.5 mph - N/A   Partly Cloudy
2:52 AM 37.9 °F 33.5 °F 21.9 °F 53% 29.79 in 10.0 mi WSW 5.8 mph - N/A   Clear
3:52 AM 39.0 °F 32.8 °F 21.0 °F 49% 29.80 in 10.0 mi West 9.2 mph 21.9 mph N/A   Partly Cloudy
4:52 AM 37.9 °F 32.7 °F 21.9 °F 53% 29.81 in 10.0 mi West 6.9 mph - N/A   Overcast
5:52 AM 37.0 °F 31.6 °F 21.9 °F 54% 29.82 in 10.0 mi West 6.9 mph - N/A   Overcast
6:52 AM 37.9 °F 32.1 °F 19.9 °F 48% 29.83 in 10.0 mi WSW 8.1 mph - N/A   Overcast
7:52 AM 39.9 °F 33.9 °F 21.0 °F 47% 29.84 in 10.0 mi West 9.2 mph 17.3 mph N/A   Overcast
8:52 AM 41.0 °F 35.2 °F 19.9 °F 43% 29.84 in 10.0 mi WNW 9.2 mph 23.0 mph N/A   Scattered Clouds
9:52 AM 43.0 °F 35.1 °F 19.9 °F 40% 29.85 in 10.0 mi WNW 17.3 mph 29.9 mph N/A   Mostly Cloudy
10:52 AM 44.1 °F 37.1 °F 19.9 °F 38% 29.86 in 10.0 mi WNW 15.0 mph 26.5 mph N/A   Scattered Clouds
11:52 AM 44.1 °F 37.1 °F 19.9 °F 38% 29.86 in 10.0 mi WNW 15.0 mph 29.9 mph N/A   Scattered Clouds
12:52 PM 44.1 °F 36.2 °F 19.9 °F 38% 29.86 in 10.0 mi West 18.4 mph 26.5 mph N/A   Mostly Cloudy
1:52 PM 46.9 °F - 19.9 °F 34% 29.86 in 10.0 mi West 13.8 mph 27.6 mph N/A   Mostly Cloudy
2:52 PM 48.0 °F - 19.9 °F 33% 29.86 in 10.0 mi West 16.1 mph 23.0 mph N/A   Mostly Cloudy
3:52 PM 45.0 °F 38.5 °F 18.0 °F 34% 29.86 in 10.0 mi WNW 13.8 mph 25.3 mph N/A   Mostly Cloudy
4:52 PM 46.0 °F 39.9 °F 18.0 °F 33% 29.88 in 10.0 mi NW 13.8 mph 24.2 mph N/A   Scattered Clouds
5:52 PM 44.1 °F 38.6 °F 19.0 °F 37% 29.91 in 10.0 mi WNW 10.4 mph 21.9 mph N/A   Scattered Clouds
6:52 PM 41.0 °F 34.7 °F 18.0 °F 40% 29.94 in 10.0 mi WNW 10.4 mph 21.9 mph N/A   Clear
7:52 PM 39.0 °F 31.8 °F 19.0 °F 45% 29.97 in 10.0 mi West 11.5 mph 18.4 mph N/A   Clear
8:52 PM 36.0 °F 32.1 °F 19.0 °F 50% 30.00 in 10.0 mi West 4.6 mph - N/A   Clear
9:52 PM 36.0 °F 31.1 °F 19.0 °F 50% 30.02 in 10.0 mi West 5.8 mph - N/A   Clear
10:52 PM 32.0 °F 28.7 °F 19.0 °F 59% 30.04 in 10.0 mi West 3.5 mph - N/A   Clear
11:52 PM 32.0 °F 28.7 °F 19.0 °F 59% 30.05 in 10.0 mi WSW 3.5 mph - N/A   Clear